Time,TemperatureF,DewpointF,PressureIn,WindDirection,WindDirectionDegrees,WindSpeedMPH,WindSpeedGustMPH,Humidity,HourlyPrecipIn,Conditions,Clouds,dailyrainin,SoftwareType,DateUTC
2013-04-16 00:00:00,64.4,58.8,29.78,NNE,15,0.0,0.0,82,0.00,,,0.00,VWS V13.01,2013-04-16 05:00:00,
2013-04-16 00:05:00,64.7,58.8,29.78,NNE,15,0.0,0.0,81,0.00,,,0.00,VWS V13.01,2013-04-16 05:05:00,
2013-04-16 00:10:00,64.9,59.0,29.78,NNE,15,0.0,0.0,81,0.00,,,0.00,VWS V13.01,2013-04-16 05:10:00,
2013-04-16 00:15:00,64.9,58.3,29.80,NNE,15,0.0,0.0,79,0.00,,,0.00,VWS V13.01,2013-04-16 05:15:00,
2013-04-16 00:19:00,64.7,58.4,29.80,NNE,15,0.0,0.0,80,0.00,,,0.00,VWS V13.01,2013-04-16 05:19:00,
2013-04-16 00:24:00,64.7,58.4,29.80,NNE,15,0.0,0.0,80,0.00,,,0.00,VWS V13.01,2013-04-16 05:24:00,
2013-04-16 00:29:00,64.7,58.4,29.80,North,356,0.0,0.0,80,0.00,,,0.00,VWS V13.01,2013-04-16 05:29:00,
2013-04-16 00:34:00,64.7,58.1,29.80,North,356,0.0,0.0,79,0.00,,,0.00,VWS V13.01,2013-04-16 05:34:00,
2013-04-16 00:39:00,64.9,58.3,29.80,North,356,0.0,0.0,79,0.00,,,0.00,VWS V13.01,2013-04-16 05:39:00,
2013-04-16 00:44:00,64.9,57.9,29.80,North,356,0.0,0.0,78,0.00,,,0.00,VWS V13.01,2013-04-16 05:44:00,
2013-04-16 00:49:00,64.7,57.7,29.80,North,356,0.0,0.0,78,0.00,,,0.00,VWS V13.01,2013-04-16 05:49:00,
2013-04-16 00:54:00,64.6,57.6,29.80,NE,50,0.0,0.0,78,0.00,,,0.00,VWS V13.01,2013-04-16 05:54:00,
2013-04-16 00:59:00,63.7,57.4,29.80,ENE,62,3.1,3.6,80,0.00,,,0.00,VWS V13.01,2013-04-16 05:59:00,
2013-04-16 01:04:00,62.8,57.9,29.80,NE,56,3.6,3.6,84,0.00,,,0.00,VWS V13.01,2013-04-16 06:04:00,
2013-04-16 01:09:00,62.2,57.7,29.80,ENE,65,2.7,2.7,85,0.00,,,0.00,VWS V13.01,2013-04-16 06:09:00,
2013-04-16 01:14:00,61.9,58.9,29.80,NE,45,3.6,3.6,90,0.00,,,0.00,VWS V13.01,2013-04-16 06:14:00,
2013-04-16 01:19:00,61.5,58.5,29.80,North,358,0.0,0.0,90,0.00,,,0.00,VWS V13.01,2013-04-16 06:19:00,
2013-04-16 01:24:00,61.3,59.0,29.80,North,358,0.0,0.0,92,0.00,,,0.00,VWS V13.01,2013-04-16 06:24:00,
2013-04-16 01:29:00,61.5,59.2,29.80,North,8,0.0,0.0,92,0.00,,,0.00,VWS V13.01,2013-04-16 06:29:00,
2013-04-16 01:34:00,61.9,59.8,29.80,North,352,0.0,0.0,93,0.00,,,0.00,VWS V13.01,2013-04-16 06:34:00,
2013-04-16 01:39:00,62.4,59.7,29.80,North,354,2.7,2.7,91,0.00,,,0.00,VWS V13.01,2013-04-16 06:39:00,
2013-04-16 01:44:00,62.9,60.3,29.80,North,354,0.0,0.0,91,0.00,,,0.00,VWS V13.01,2013-04-16 06:44:00,
2013-04-16 01:50:00,63.5,60.2,29.80,North,354,0.0,0.0,89,0.00,,,0.00,VWS V13.01,2013-04-16 06:50:00,
2013-04-16 01:55:00,63.7,59.7,29.80,North,354,0.0,0.0,87,0.00,,,0.00,VWS V13.01,2013-04-16 06:55:00,
2013-04-16 02:00:00,63.5,59.2,29.80,North,11,0.0,0.0,86,0.00,,,0.00,VWS V13.01,2013-04-16 07:00:00,
2013-04-16 02:05:00,63.5,59.5,29.80,North,11,0.0,0.0,87,0.00,,,0.00,VWS V13.01,2013-04-16 07:05:00,
2013-04-16 02:10:00,63.5,60.2,29.80,North,11,0.0,0.0,89,0.00,,,0.00,VWS V13.01,2013-04-16 07:10:00,
2013-04-16 02:15:00,63.5,59.9,29.80,North,9,0.0,0.0,88,0.00,,,0.00,VWS V13.01,2013-04-16 07:15:00,
2013-04-16 02:20:00,63.3,59.4,29.80,NNE,25,0.0,0.0,87,0.00,,,0.00,VWS V13.01,2013-04-16 07:20:00,
2013-04-16 02:25:00,62.9,59.0,29.80,NNE,25,0.0,0.0,87,0.00,,,0.00,VWS V13.01,2013-04-16 07:25:00,
2013-04-16 02:30:00,62.9,59.7,29.80,NNE,25,0.0,0.0,89,0.00,,,0.00,VWS V13.01,2013-04-16 07:30:00,
2013-04-16 02:35:00,62.8,60.1,29.80,NNE,25,0.0,0.0,91,0.00,,,0.00,VWS V13.01,2013-04-16 07:35:00,
2013-04-16 02:40:00,62.6,59.9,29.80,NNE,25,0.0,0.0,91,0.00,,,0.00,VWS V13.01,2013-04-16 07:40:00,
2013-04-16 02:45:00,62.6,59.9,29.80,NNE,25,0.0,0.0,91,0.00,,,0.00,VWS V13.01,2013-04-16 07:45:00,
2013-04-16 02:50:00,62.6,60.2,29.80,NNE,27,0.0,0.0,92,0.00,,,0.00,VWS V13.01,2013-04-16 07:50:00,
2013-04-16 02:55:00,62.4,60.3,29.80,NE,35,0.0,0.0,93,0.00,,,0.00,VWS V13.01,2013-04-16 07:55:00,
2013-04-16 03:00:00,62.6,60.5,29.80,NE,35,0.0,0.0,93,0.00,,,0.00,VWS V13.01,2013-04-16 08:00:00,
2013-04-16 03:05:00,62.4,60.3,29.80,NE,55,0.0,0.0,93,0.00,,,0.00,VWS V13.01,2013-04-16 08:05:00,
2013-04-16 03:10:00,62.8,61.0,29.80,NE,55,0.0,0.0,94,0.00,,,0.00,VWS V13.01,2013-04-16 08:10:00,
2013-04-16 03:15:00,63.1,61.7,29.80,ENE,59,0.0,0.0,95,0.00,,,0.00,VWS V13.01,2013-04-16 08:15:00,
2013-04-16 03:20:00,63.5,62.0,29.80,NE,51,2.7,3.6,95,0.00,,,0.00,VWS V13.01,2013-04-16 08:20:00,
2013-04-16 03:25:00,63.8,61.2,29.80,North,357,2.7,3.6,91,0.00,,,0.00,VWS V13.01,2013-04-16 08:25:00,
2013-04-16 03:30:00,63.8,60.5,29.80,North,357,0.0,0.0,89,0.00,,,0.00,VWS V13.01,2013-04-16 08:30:00,
2013-04-16 03:35:00,63.7,61.0,29.80,North,352,3.1,3.1,91,0.00,,,0.00,VWS V13.01,2013-04-16 08:35:00,
2013-04-16 03:40:00,64.0,61.3,29.80,North,8,3.1,3.6,91,0.00,,,0.00,VWS V13.01,2013-04-16 08:40:00,
2013-04-16 03:45:00,64.4,61.4,29.83,NE,34,3.6,4.9,90,0.00,,,0.00,VWS V13.01,2013-04-16 08:45:00,
2013-04-16 03:50:00,64.6,61.2,29.83,ENE,61,3.1,3.6,89,0.00,,,0.00,VWS V13.01,2013-04-16 08:50:00,
2013-04-16 03:55:00,64.7,61.4,29.83,NE,47,4.0,5.4,89,0.00,,,0.00,VWS V13.01,2013-04-16 08:55:00,
2013-04-16 04:00:00,64.7,61.4,29.83,NE,43,3.6,3.6,89,0.00,,,0.00,VWS V13.01,2013-04-16 09:00:00,
2013-04-16 04:05:00,64.7,61.1,29.83,NNE,26,3.6,4.0,88,0.00,,,0.00,VWS V13.01,2013-04-16 09:05:00,
2013-04-16 04:10:00,64.7,61.1,29.83,NNE,26,2.7,4.0,88,0.00,,,0.00,VWS V13.01,2013-04-16 09:10:00,
2013-04-16 04:15:00,64.7,61.1,29.83,NE,34,3.1,3.1,88,0.00,,,0.00,VWS V13.01,2013-04-16 09:15:00,
2013-04-16 04:20:00,64.7,61.4,29.83,NE,38,2.7,3.1,89,0.00,,,0.00,VWS V13.01,2013-04-16 09:20:00,
2013-04-16 04:25:00,64.9,61.6,29.83,NE,36,3.6,3.6,89,0.00,,,0.00,VWS V13.01,2013-04-16 09:25:00,
2013-04-16 04:30:00,65.1,61.8,29.83,NE,36,3.6,3.6,89,0.00,,,0.00,VWS V13.01,2013-04-16 09:30:00,
2013-04-16 04:35:00,65.3,61.6,29.83,NE,53,3.6,4.0,88,0.00,,,0.00,VWS V13.01,2013-04-16 09:35:00,
2013-04-16 04:40:00,65.3,61.6,29.83,NE,53,3.6,3.6,88,0.00,,,0.00,VWS V13.01,2013-04-16 09:40:00,
2013-04-16 04:45:00,65.6,61.7,29.83,NE,55,2.7,4.0,87,0.00,,,0.00,VWS V13.01,2013-04-16 09:45:00,
2013-04-16 04:50:00,65.8,61.8,29.83,NE,50,3.6,3.6,87,0.00,,,0.00,VWS V13.01,2013-04-16 09:50:00,
2013-04-16 04:55:00,66.0,61.4,29.83,ENE,59,2.7,5.4,85,0.00,,,0.00,VWS V13.01,2013-04-16 09:55:00,
2013-04-16 05:00:00,66.2,61.5,29.83,NE,36,3.1,3.1,85,0.00,,,0.00,VWS V13.01,2013-04-16 10:00:00,
2013-04-16 05:05:00,66.4,61.7,29.83,NE,54,3.1,3.1,85,0.00,,,0.00,VWS V13.01,2013-04-16 10:05:00,
2013-04-16 05:10:00,66.4,61.7,29.83,NE,51,3.1,3.6,85,0.00,,,0.00,VWS V13.01,2013-04-16 10:10:00,
2013-04-16 05:15:00,66.4,61.7,29.83,NE,49,3.1,3.1,85,0.00,,,0.00,VWS V13.01,2013-04-16 10:15:00,
2013-04-16 05:19:00,66.5,61.9,29.83,NE,48,2.2,3.1,85,0.00,,,0.00,VWS V13.01,2013-04-16 10:19:00,
2013-04-16 05:24:00,66.5,61.9,29.83,NE,43,3.1,3.6,85,0.00,,,0.00,VWS V13.01,2013-04-16 10:24:00,
2013-04-16 05:29:00,66.5,61.9,29.83,NE,40,2.2,2.7,85,0.00,,,0.00,VWS V13.01,2013-04-16 10:29:00,
2013-04-16 05:34:00,66.5,61.9,29.83,ENE,60,2.7,3.1,85,0.00,,,0.00,VWS V13.01,2013-04-16 10:34:00,
2013-04-16 05:40:00,66.5,61.9,29.83,NE,53,2.7,3.1,85,0.00,,,0.00,VWS V13.01,2013-04-16 10:40:00,
2013-04-16 05:45:00,66.7,62.1,29.83,ENE,63,2.7,2.7,85,0.00,,,0.00,VWS V13.01,2013-04-16 10:45:00,
2013-04-16 05:50:00,66.7,62.1,29.83,NE,55,0.0,2.7,85,0.00,,,0.00,VWS V13.01,2013-04-16 10:50:00,
2013-04-16 05:55:00,66.7,62.1,29.83,NE,54,0.0,0.0,85,0.00,,,0.00,VWS V13.01,2013-04-16 10:55:00,
2013-04-16 06:00:00,66.7,62.1,29.86,ENE,63,0.0,0.0,85,0.00,,,0.00,VWS V13.01,2013-04-16 11:00:00,
2013-04-16 06:05:00,66.7,62.1,29.86,East,79,3.1,4.0,85,0.00,,,0.00,VWS V13.01,2013-04-16 11:05:00,
2013-04-16 06:10:00,66.9,62.2,29.86,ENE,57,2.7,3.6,85,0.00,,,0.00,VWS V13.01,2013-04-16 11:10:00,
2013-04-16 06:15:00,67.1,62.4,29.86,ENE,61,2.7,3.6,85,0.00,,,0.00,VWS V13.01,2013-04-16 11:15:00,
2013-04-16 06:20:00,67.1,62.4,29.86,ENE,59,3.6,3.6,85,0.00,,,0.00,VWS V13.01,2013-04-16 11:20:00,
2013-04-16 06:25:00,67.1,62.4,29.86,ENE,63,3.6,3.6,85,0.00,,,0.00,VWS V13.01,2013-04-16 11:25:00,
2013-04-16 06:30:00,67.1,62.4,29.86,ENE,57,2.7,3.6,85,0.00,,,0.00,VWS V13.01,2013-04-16 11:30:00,
2013-04-16 06:35:00,67.1,62.4,29.86,ENE,60,3.6,4.0,85,0.00,,,0.00,VWS V13.01,2013-04-16 11:35:00,
2013-04-16 06:40:00,66.9,62.2,29.86,ENE,62,3.1,5.4,85,0.00,,,0.00,VWS V13.01,2013-04-16 11:40:00,
2013-04-16 06:45:00,66.9,62.6,29.86,ENE,59,3.1,3.6,86,0.00,,,0.00,VWS V13.01,2013-04-16 11:45:00,
2013-04-16 06:50:00,67.1,62.8,29.86,ENE,63,3.1,3.6,86,0.00,,,0.00,VWS V13.01,2013-04-16 11:50:00,
2013-04-16 06:55:00,67.1,62.8,29.86,ESE,110,4.0,4.0,86,0.00,,,0.00,VWS V13.01,2013-04-16 11:55:00,
2013-04-16 07:00:00,67.1,62.8,29.86,ENE,63,3.1,3.6,86,0.00,,,0.00,VWS V13.01,2013-04-16 12:00:00,
2013-04-16 07:05:00,67.3,62.9,29.86,ENE,66,4.0,4.0,86,0.00,,,0.00,VWS V13.01,2013-04-16 12:05:00,
2013-04-16 07:10:00,67.4,63.1,29.86,ESE,119,6.3,6.3,86,0.00,,,0.00,VWS V13.01,2013-04-16 12:10:00,
2013-04-16 07:15:00,67.4,63.1,29.89,East,79,5.4,6.3,86,0.00,,,0.00,VWS V13.01,2013-04-16 12:15:00,
2013-04-16 07:20:00,67.6,63.0,29.89,ENE,58,3.6,4.0,85,0.00,,,0.00,VWS V13.01,2013-04-16 12:20:00,
2013-04-16 07:25:00,67.6,63.0,29.89,NE,49,4.0,4.9,85,0.00,,,0.00,VWS V13.01,2013-04-16 12:25:00,
2013-04-16 07:30:00,67.8,63.1,29.89,ENE,64,4.9,4.9,85,0.00,,,0.00,VWS V13.01,2013-04-16 12:30:00,
2013-04-16 07:35:00,67.8,63.1,29.89,ENE,64,3.6,3.6,85,0.00,,,0.00,VWS V13.01,2013-04-16 12:35:00,
2013-04-16 07:40:00,67.8,63.1,29.89,ENE,62,4.9,4.9,85,0.00,,,0.00,VWS V13.01,2013-04-16 12:40:00,
2013-04-16 07:45:00,68.2,63.5,29.89,East,96,4.0,5.4,85,0.00,,,0.00,VWS V13.01,2013-04-16 12:45:00,
2013-04-16 07:50:00,68.5,63.5,29.89,ESE,103,2.7,3.6,84,0.00,,,0.00,VWS V13.01,2013-04-16 12:50:00,
2013-04-16 07:55:00,68.9,63.2,29.89,East,98,3.6,8.3,82,0.00,,,0.00,VWS V13.01,2013-04-16 12:55:00,
2013-04-16 07:59:00,69.2,63.2,29.89,ENE,76,4.9,7.2,81,0.00,,,0.00,VWS V13.01,2013-04-16 12:59:00,
2013-04-16 08:04:00,69.4,63.0,29.89,East,79,5.8,5.8,80,0.00,,,0.00,VWS V13.01,2013-04-16 13:04:00,
2013-04-16 08:09:00,69.6,62.8,29.89,ESE,111,4.9,4.9,79,0.00,,,0.00,VWS V13.01,2013-04-16 13:09:00,
2013-04-16 08:14:00,69.6,62.8,29.89,ESE,106,4.0,4.0,79,0.00,,,0.00,VWS V13.01,2013-04-16 13:14:00,
2013-04-16 08:19:00,69.6,62.4,29.89,East,101,3.1,3.6,78,0.00,,,0.00,VWS V13.01,2013-04-16 13:19:00,
2013-04-16 08:24:00,69.8,62.6,29.89,ESE,105,3.6,3.6,78,0.00,,,0.00,VWS V13.01,2013-04-16 13:24:00,
2013-04-16 08:29:00,69.8,62.6,29.89,SSE,150,5.8,5.8,78,0.00,,,0.00,VWS V13.01,2013-04-16 13:29:00,
2013-04-16 08:34:00,70.0,62.4,29.89,ENE,76,4.5,5.8,77,0.00,,,0.00,VWS V13.01,2013-04-16 13:34:00,
2013-04-16 08:39:00,70.1,62.6,29.89,East,97,2.7,4.0,77,0.00,,,0.00,VWS V13.01,2013-04-16 13:39:00,
2013-04-16 08:44:00,70.3,62.4,29.92,ENE,64,5.4,5.4,76,0.00,,,0.00,VWS V13.01,2013-04-16 13:44:00,
2013-04-16 08:49:00,70.9,62.5,29.92,East,80,3.6,8.1,75,0.00,,,0.00,VWS V13.01,2013-04-16 13:49:00,
2013-04-16 08:54:00,71.0,62.3,29.92,ENE,70,4.5,6.3,74,0.00,,,0.00,VWS V13.01,2013-04-16 13:54:00,
2013-04-16 08:59:00,71.4,62.7,29.92,SE,132,3.6,3.6,74,0.00,,,0.00,VWS V13.01,2013-04-16 13:59:00,
2013-04-16 09:04:00,71.6,62.1,29.92,SE,143,5.4,5.8,72,0.00,,,0.00,VWS V13.01,2013-04-16 14:04:00,
2013-04-16 09:09:00,71.8,62.3,29.92,ESE,105,6.3,6.3,72,0.00,,,0.00,VWS V13.01,2013-04-16 14:09:00,
2013-04-16 09:14:00,71.8,62.3,29.92,SE,133,7.6,7.6,72,0.00,,,0.00,VWS V13.01,2013-04-16 14:14:00,
2013-04-16 09:19:00,71.9,62.4,29.92,East,101,6.3,6.3,72,0.00,,,0.00,VWS V13.01,2013-04-16 14:19:00,
2013-04-16 09:24:00,72.1,62.6,29.92,ESE,112,3.6,4.5,72,0.00,,,0.00,VWS V13.01,2013-04-16 14:24:00,
2013-04-16 09:29:00,72.5,62.2,29.92,East,92,3.1,7.6,70,0.00,,,0.00,VWS V13.01,2013-04-16 14:29:00,
2013-04-16 09:34:00,72.7,61.9,29.92,ESE,113,0.0,4.0,69,0.00,,,0.00,VWS V13.01,2013-04-16 14:34:00,
2013-04-16 09:39:00,72.8,62.5,29.92,ENE,74,5.8,8.1,70,0.00,,,0.00,VWS V13.01,2013-04-16 14:39:00,
2013-04-16 09:44:00,72.8,62.5,29.92,NE,53,5.8,5.8,70,0.00,,,0.00,VWS V13.01,2013-04-16 14:44:00,
2013-04-16 09:49:00,72.8,62.1,29.92,ESE,117,3.6,3.6,69,0.00,,,0.00,VWS V13.01,2013-04-16 14:49:00,
2013-04-16 09:54:00,73.4,61.3,29.92,ESE,112,5.8,5.8,66,0.00,,,0.00,VWS V13.01,2013-04-16 14:54:00,
2013-04-16 09:59:00,73.2,61.6,29.92,East,99,3.6,4.0,67,0.00,,,0.00,VWS V13.01,2013-04-16 14:59:00,
2013-04-16 10:04:00,73.4,61.3,29.92,East,92,5.4,5.4,66,0.00,,,0.00,VWS V13.01,2013-04-16 15:04:00,
2013-04-16 10:09:00,73.4,61.3,29.92,ESE,104,5.8,5.8,66,0.00,,,0.00,VWS V13.01,2013-04-16 15:09:00,
2013-04-16 10:14:00,73.6,61.5,29.92,East,87,4.5,4.5,66,0.00,,,0.00,VWS V13.01,2013-04-16 15:14:00,
2013-04-16 10:19:00,73.9,61.4,29.92,ENE,76,5.4,6.3,65,0.00,,,0.00,VWS V13.01,2013-04-16 15:19:00,
2013-04-16 10:24:00,73.9,61.0,29.92,ESE,107,4.0,5.4,64,0.00,,,0.00,VWS V13.01,2013-04-16 15:24:00,
2013-04-16 10:29:00,73.9,61.0,29.92,East,85,4.9,4.9,64,0.00,,,0.00,VWS V13.01,2013-04-16 15:29:00,
2013-04-16 10:34:00,74.1,61.2,29.92,ESE,104,4.9,5.4,64,0.00,,,0.00,VWS V13.01,2013-04-16 15:34:00,
2013-04-16 10:39:00,74.5,61.0,29.92,ESE,106,3.1,5.8,63,0.00,,,0.00,VWS V13.01,2013-04-16 15:39:00,
2013-04-16 10:44:00,74.6,61.2,29.92,SE,131,3.1,3.1,63,0.00,,,0.00,VWS V13.01,2013-04-16 15:44:00,
2013-04-16 10:49:00,74.8,60.9,29.92,SE,131,2.7,3.6,62,0.00,,,0.00,VWS V13.01,2013-04-16 15:49:00,
2013-04-16 10:54:00,75.2,60.8,29.92,SE,143,3.6,3.6,61,0.00,,,0.00,VWS V13.01,2013-04-16 15:54:00,
2013-04-16 10:59:00,75.5,60.7,29.92,ENE,78,7.6,8.1,60,0.00,,,0.00,VWS V13.01,2013-04-16 15:59:00,
2013-04-16 11:04:00,75.7,61.8,29.92,SE,133,4.0,4.0,62,0.00,,,0.00,VWS V13.01,2013-04-16 16:04:00,
2013-04-16 11:09:00,75.9,61.0,29.92,ESE,102,3.6,8.1,60,0.00,,,0.00,VWS V13.01,2013-04-16 16:09:00,
2013-04-16 11:14:00,75.7,60.9,29.92,ESE,120,4.0,4.0,60,0.00,,,0.00,VWS V13.01,2013-04-16 16:14:00,
2013-04-16 11:19:00,75.9,61.0,29.92,SE,126,4.9,5.8,60,0.00,,,0.00,VWS V13.01,2013-04-16 16:19:00,
2013-04-16 11:24:00,75.9,61.0,29.92,SSW,194,4.0,4.0,60,0.00,,,0.00,VWS V13.01,2013-04-16 16:24:00,
2013-04-16 11:29:00,76.1,61.7,29.92,SSE,154,5.4,5.4,61,0.00,,,0.00,VWS V13.01,2013-04-16 16:29:00,
2013-04-16 11:34:00,77.0,62.0,29.92,SE,143,6.3,6.3,60,0.00,,,0.00,VWS V13.01,2013-04-16 16:34:00,
2013-04-16 11:39:00,77.5,60.6,29.92,SSW,194,3.1,3.1,56,0.00,,,0.00,VWS V13.01,2013-04-16 16:39:00,
2013-04-16 11:44:00,77.5,60.1,29.92,South,183,4.9,6.7,55,0.00,,,0.00,VWS V13.01,2013-04-16 16:44:00,
2013-04-16 11:49:00,77.5,60.6,29.92,SSW,207,2.7,5.8,56,0.00,,,0.00,VWS V13.01,2013-04-16 16:49:00,
2013-04-16 11:54:00,77.9,59.9,29.92,SSE,151,4.5,6.3,54,0.00,,,0.00,VWS V13.01,2013-04-16 16:54:00,
2013-04-16 11:59:00,77.7,59.8,29.92,ESE,114,6.3,6.7,54,0.00,,,0.00,VWS V13.01,2013-04-16 16:59:00,
2013-04-16 12:04:00,77.5,60.1,29.92,South,170,5.4,8.3,55,0.00,,,0.00,VWS V13.01,2013-04-16 17:04:00,
2013-04-16 12:09:00,77.7,59.8,29.92,SSW,195,5.8,10.5,54,0.00,,,0.00,VWS V13.01,2013-04-16 17:09:00,
2013-04-16 12:14:00,77.9,60.4,29.92,SW,222,4.0,4.0,55,0.00,,,0.00,VWS V13.01,2013-04-16 17:14:00,
2013-04-16 12:19:00,77.7,60.3,29.92,SSW,200,3.6,4.0,55,0.00,,,0.00,VWS V13.01,2013-04-16 17:19:00,
2013-04-16 12:24:00,77.5,59.6,29.92,WSW,241,2.7,4.0,54,0.00,,,0.00,VWS V13.01,2013-04-16 17:24:00,
2013-04-16 12:29:00,77.7,59.2,29.92,SSW,195,4.9,6.3,53,0.00,,,0.00,VWS V13.01,2013-04-16 17:29:00,
2013-04-16 12:34:00,77.9,59.4,29.92,SE,136,5.8,8.3,53,0.00,,,0.00,VWS V13.01,2013-04-16 17:34:00,
2013-04-16 12:39:00,78.2,59.7,29.92,SE,143,3.1,3.1,53,0.00,,,0.00,VWS V13.01,2013-04-16 17:39:00,
2013-04-16 12:44:00,79.0,59.8,29.92,ESE,109,3.1,3.1,52,0.00,,,0.00,VWS V13.01,2013-04-16 17:44:00,
2013-04-16 12:49:00,79.0,59.8,29.92,East,85,3.1,5.4,52,0.00,,,0.00,VWS V13.01,2013-04-16 17:49:00,
2013-04-16 12:54:00,78.8,59.7,29.92,ESE,112,2.2,2.7,52,0.00,,,0.00,VWS V13.01,2013-04-16 17:54:00,
2013-04-16 12:59:00,79.1,59.5,29.92,SSE,150,4.0,4.9,51,0.00,,,0.00,VWS V13.01,2013-04-16 17:59:00,
2013-04-16 13:04:00,79.5,59.8,29.92,ESE,111,4.0,4.5,51,0.00,,,0.00,VWS V13.01,2013-04-16 18:04:00,
2013-04-16 13:09:00,79.3,59.1,29.92,South,172,7.6,8.1,50,0.00,,,0.00,VWS V13.01,2013-04-16 18:09:00,
2013-04-16 13:14:00,79.5,59.8,29.92,SSW,194,6.3,6.3,51,0.00,,,0.00,VWS V13.01,2013-04-16 18:14:00,
2013-04-16 13:19:00,79.9,61.2,29.92,West,266,5.4,6.3,53,0.00,,,0.00,VWS V13.01,2013-04-16 18:19:00,
2013-04-16 13:24:00,80.2,61.0,29.92,WSW,240,4.9,4.9,52,0.00,,,0.00,VWS V13.01,2013-04-16 18:24:00,
2013-04-16 13:29:00,80.8,61.0,29.89,South,170,3.6,3.6,51,0.00,,,0.00,VWS V13.01,2013-04-16 18:29:00,
2013-04-16 13:34:00,80.8,59.8,29.89,SSE,156,2.7,3.1,49,0.00,,,0.00,VWS V13.01,2013-04-16 18:34:00,
2013-04-16 13:39:00,81.1,60.7,29.89,South,185,0.0,0.0,50,0.00,,,0.00,VWS V13.01,2013-04-16 18:39:00,
2013-04-16 13:43:00,83.1,62.0,29.89,ESE,118,0.0,2.2,49,0.00,,,0.00,VWS V13.01,2013-04-16 18:43:00,
2013-04-16 13:48:00,84.0,61.0,29.89,SSE,153,3.6,4.9,46,0.00,,,0.00,VWS V13.01,2013-04-16 18:48:00,
2013-04-16 13:53:00,84.2,61.2,29.89,NE,56,0.0,4.0,46,0.00,,,0.00,VWS V13.01,2013-04-16 18:53:00,
2013-04-16 13:58:00,84.4,60.7,29.89,SSW,193,4.0,5.4,45,0.00,,,0.00,VWS V13.01,2013-04-16 18:58:00,
2013-04-16 14:03:00,84.0,62.2,29.89,SSW,211,5.4,5.8,48,0.00,,,0.00,VWS V13.01,2013-04-16 19:03:00,
2013-04-16 14:08:00,83.3,61.0,29.89,ESE,114,5.8,6.3,47,0.00,,,0.00,VWS V13.01,2013-04-16 19:08:00,
2013-04-16 14:13:00,83.1,61.4,29.89,SE,126,5.8,6.3,48,0.00,,,0.00,VWS V13.01,2013-04-16 19:13:00,
2013-04-16 14:18:00,83.1,60.8,29.89,SSW,195,6.3,10.1,47,0.00,,,0.00,VWS V13.01,2013-04-16 19:18:00,
2013-04-16 14:23:00,82.7,59.9,29.89,SSW,210,4.0,4.0,46,0.00,,,0.00,VWS V13.01,2013-04-16 19:23:00,
2013-04-16 14:28:00,82.0,61.0,29.89,WSW,239,3.6,6.3,49,0.00,,,0.00,VWS V13.01,2013-04-16 19:28:00,
2013-04-16 14:33:00,82.0,61.0,29.89,SSE,165,6.3,6.3,49,0.00,,,0.00,VWS V13.01,2013-04-16 19:33:00,
2013-04-16 14:38:00,82.6,60.3,29.89,ESE,109,3.6,6.3,47,0.00,,,0.00,VWS V13.01,2013-04-16 19:38:00,
2013-04-16 14:43:00,83.1,61.4,29.89,SSW,195,6.3,6.3,48,0.00,,,0.00,VWS V13.01,2013-04-16 19:43:00,
2013-04-16 14:48:00,83.5,61.1,29.89,SE,124,4.0,5.8,47,0.00,,,0.00,VWS V13.01,2013-04-16 19:48:00,
2013-04-16 14:53:00,84.2,62.4,29.89,South,186,6.7,6.7,48,0.00,,,0.00,VWS V13.01,2013-04-16 19:53:00,
2013-04-16 14:58:00,84.2,59.3,29.89,SSE,154,4.9,4.9,43,0.00,,,0.00,VWS V13.01,2013-04-16 19:58:00,
2013-04-16 15:03:00,84.0,59.8,29.89,SSE,165,5.8,7.6,44,0.00,,,0.00,VWS V13.01,2013-04-16 20:03:00,
2013-04-16 15:08:00,84.0,59.8,29.89,SSE,153,3.6,8.1,44,0.00,,,0.00,VWS V13.01,2013-04-16 20:08:00,
2013-04-16 15:13:00,83.8,60.2,29.89,South,172,6.3,10.5,45,0.00,,,0.00,VWS V13.01,2013-04-16 20:13:00,
2013-04-16 15:18:00,83.8,60.2,29.89,SE,130,5.8,7.6,45,0.00,,,0.00,VWS V13.01,2013-04-16 20:18:00,
2013-04-16 15:23:00,83.8,60.2,29.89,SE,143,5.8,8.7,45,0.00,,,0.00,VWS V13.01,2013-04-16 20:23:00,
2013-04-16 15:28:00,84.4,60.1,29.89,SSE,167,5.8,5.8,44,0.00,,,0.00,VWS V13.01,2013-04-16 20:28:00,
2013-04-16 15:33:00,84.5,60.2,29.89,SSE,153,4.9,5.8,44,0.00,,,0.00,VWS V13.01,2013-04-16 20:33:00,
2013-04-16 15:38:00,84.2,59.3,29.89,SE,130,3.6,6.3,43,0.00,,,0.00,VWS V13.01,2013-04-16 20:38:00,
2013-04-16 15:43:00,83.5,58.6,29.86,ESE,114,7.6,7.6,43,0.00,,,0.00,VWS V13.01,2013-04-16 20:43:00,
2013-04-16 15:48:00,82.9,58.8,29.86,SSE,164,3.6,4.0,44,0.00,,,0.00,VWS V13.01,2013-04-16 20:48:00,
2013-04-16 15:53:00,82.9,59.4,29.86,SSE,151,5.4,8.1,45,0.00,,,0.00,VWS V13.01,2013-04-16 20:53:00,
2013-04-16 15:58:00,82.9,59.4,29.86,SSE,147,3.6,6.3,45,0.00,,,0.00,VWS V13.01,2013-04-16 20:58:00,
2013-04-16 16:03:00,83.5,60.5,29.86,East,82,5.8,6.3,46,0.00,,,0.00,VWS V13.01,2013-04-16 21:03:00,
2013-04-16 16:08:00,83.8,59.6,29.86,South,175,4.0,4.9,44,0.00,,,0.00,VWS V13.01,2013-04-16 21:08:00,
2013-04-16 16:13:00,84.0,59.8,29.86,SSE,152,5.4,5.4,44,0.00,,,0.00,VWS V13.01,2013-04-16 21:13:00,
2013-04-16 16:18:00,83.8,60.2,29.86,SE,128,3.6,3.6,45,0.00,,,0.00,VWS V13.01,2013-04-16 21:18:00,
2013-04-16 16:23:00,83.5,59.9,29.86,SE,143,5.4,7.6,45,0.00,,,0.00,VWS V13.01,2013-04-16 21:23:00,
2013-04-16 16:28:00,83.5,60.5,29.86,South,171,3.1,4.0,46,0.00,,,0.00,VWS V13.01,2013-04-16 21:28:00,
2013-04-16 16:33:00,83.5,59.9,29.86,SSE,160,7.6,8.7,45,0.00,,,0.00,VWS V13.01,2013-04-16 21:33:00,
2013-04-16 16:38:00,83.8,59.6,29.86,SE,127,6.3,6.3,44,0.00,,,0.00,VWS V13.01,2013-04-16 21:38:00,
2013-04-16 16:43:00,84.0,60.4,29.86,SE,139,5.4,5.4,45,0.00,,,0.00,VWS V13.01,2013-04-16 21:43:00,
2013-04-16 16:48:00,83.8,60.2,29.86,SE,124,2.7,3.1,45,0.00,,,0.00,VWS V13.01,2013-04-16 21:48:00,
2013-04-16 16:53:00,83.8,60.2,29.86,ESE,122,4.9,5.4,45,0.00,,,0.00,VWS V13.01,2013-04-16 21:53:00,
2013-04-16 16:58:00,84.0,61.0,29.86,SE,138,2.7,3.1,46,0.00,,,0.00,VWS V13.01,2013-04-16 21:58:00,
2013-04-16 17:03:00,84.2,59.9,29.86,SE,132,3.6,5.4,44,0.00,,,0.00,VWS V13.01,2013-04-16 22:03:00,
2013-04-16 17:08:00,84.2,59.9,29.86,SSE,147,4.9,4.9,44,0.00,,,0.00,VWS V13.01,2013-04-16 22:08:00,
2013-04-16 17:13:00,84.2,59.9,29.86,SSE,156,3.6,5.4,44,0.00,,,0.00,VWS V13.01,2013-04-16 22:13:00,
2013-04-16 17:18:00,84.0,59.8,29.86,SE,140,6.3,6.3,44,0.00,,,0.00,VWS V13.01,2013-04-16 22:18:00,
2013-04-16 17:23:00,83.5,59.9,29.86,ESE,117,4.5,4.5,45,0.00,,,0.00,VWS V13.01,2013-04-16 22:23:00,
2013-04-16 17:28:00,83.1,60.2,29.86,SE,129,3.1,3.1,46,0.00,,,0.00,VWS V13.01,2013-04-16 22:28:00,
2013-04-16 17:33:00,82.7,59.9,29.86,ESE,114,5.8,5.8,46,0.00,,,0.00,VWS V13.01,2013-04-16 22:33:00,
2013-04-16 17:38:00,82.7,59.3,29.86,SE,124,5.8,5.8,45,0.00,,,0.00,VWS V13.01,2013-04-16 22:38:00,
2013-04-16 17:43:00,83.1,59.6,29.86,SE,143,5.4,5.4,45,0.00,,,0.00,VWS V13.01,2013-04-16 22:43:00,
2013-04-16 17:48:00,83.1,60.2,29.86,South,173,5.4,6.3,46,0.00,,,0.00,VWS V13.01,2013-04-16 22:48:00,
2013-04-16 17:53:00,83.1,60.2,29.86,ESE,121,5.4,5.4,46,0.00,,,0.00,VWS V13.01,2013-04-16 22:53:00,
2013-04-16 17:58:00,82.9,60.0,29.86,ESE,120,5.8,7.2,46,0.00,,,0.00,VWS V13.01,2013-04-16 22:58:00,
2013-04-16 18:03:00,82.7,60.5,29.86,SSE,163,8.3,8.3,47,0.00,,,0.00,VWS V13.01,2013-04-16 23:03:00,
2013-04-16 18:08:00,82.4,59.5,29.86,SSE,152,4.0,4.5,46,0.00,,,0.00,VWS V13.01,2013-04-16 23:08:00,
2013-04-16 18:13:00,82.2,59.4,29.86,East,80,3.6,3.6,46,0.00,,,0.00,VWS V13.01,2013-04-16 23:13:00,
2013-04-16 18:18:00,82.0,59.8,29.86,ESE,122,3.6,4.0,47,0.00,,,0.00,VWS V13.01,2013-04-16 23:18:00,
2013-04-16 18:23:00,81.8,60.2,29.86,SE,132,3.1,4.0,48,0.00,,,0.00,VWS V13.01,2013-04-16 23:23:00,
2013-04-16 18:28:00,81.7,60.1,29.86,ESE,118,3.6,3.6,48,0.00,,,0.00,VWS V13.01,2013-04-16 23:28:00,
2013-04-16 18:33:00,81.8,60.2,29.86,SE,132,3.1,4.9,48,0.00,,,0.00,VWS V13.01,2013-04-16 23:33:00,
2013-04-16 18:38:00,81.8,60.2,29.86,East,89,3.6,4.0,48,0.00,,,0.00,VWS V13.01,2013-04-16 23:38:00,
2013-04-16 18:43:00,81.7,60.7,29.86,East,97,0.0,3.6,49,0.00,,,0.00,VWS V13.01,2013-04-16 23:43:00,
2013-04-16 18:48:00,81.5,60.5,29.86,ESE,114,2.7,2.7,49,0.00,,,0.00,VWS V13.01,2013-04-16 23:48:00,
2013-04-16 18:53:00,81.5,60.5,29.86,East,86,0.0,3.6,49,0.00,,,0.00,VWS V13.01,2013-04-16 23:53:00,
2013-04-16 18:58:00,81.3,60.3,29.86,ENE,72,3.6,3.6,49,0.00,,,0.00,VWS V13.01,2013-04-16 23:58:00,
2013-04-16 19:03:00,81.3,60.3,29.86,ESE,111,0.0,0.0,49,0.00,,,0.00,VWS V13.01,2013-04-17 00:03:00,
2013-04-16 19:08:00,81.1,60.2,29.86,ESE,104,0.0,0.0,49,0.00,,,0.00,VWS V13.01,2013-04-17 00:08:00,
2013-04-16 19:13:00,81.1,60.2,29.86,ESE,113,2.7,5.8,49,0.00,,,0.00,VWS V13.01,2013-04-17 00:13:00,
2013-04-16 19:18:00,80.8,59.8,29.86,ESE,123,4.9,5.4,49,0.00,,,0.00,VWS V13.01,2013-04-17 00:18:00,
2013-04-16 19:23:00,80.6,59.7,29.86,SE,132,2.7,5.8,49,0.00,,,0.00,VWS V13.01,2013-04-17 00:23:00,
2013-04-16 19:28:00,80.4,60.1,29.86,East,100,2.2,3.1,50,0.00,,,0.00,VWS V13.01,2013-04-17 00:28:00,
2013-04-16 19:33:00,80.0,59.8,29.86,ESE,109,2.7,3.6,50,0.00,,,0.00,VWS V13.01,2013-04-17 00:33:00,
2013-04-16 19:38:00,79.7,59.4,29.86,East,96,5.4,5.8,50,0.00,,,0.00,VWS V13.01,2013-04-17 00:38:00,
2013-04-16 19:43:00,79.5,59.8,29.86,East,82,3.1,4.0,51,0.00,,,0.00,VWS V13.01,2013-04-17 00:43:00,
2013-04-16 19:48:00,79.1,59.5,29.89,ENE,68,3.1,3.1,51,0.00,,,0.00,VWS V13.01,2013-04-17 00:48:00,
2013-04-16 19:53:00,78.8,59.1,29.89,East,90,2.2,2.7,51,0.00,,,0.00,VWS V13.01,2013-04-17 00:53:00,
2013-04-16 19:58:00,78.2,59.2,29.89,East,80,2.2,2.7,52,0.00,,,0.00,VWS V13.01,2013-04-17 00:58:00,
2013-04-16 20:03:00,78.1,59.0,29.89,ENE,71,2.2,3.1,52,0.00,,,0.00,VWS V13.01,2013-04-17 01:03:00,
2013-04-16 20:08:00,77.9,58.9,29.89,ENE,62,0.0,0.0,52,0.00,,,0.00,VWS V13.01,2013-04-17 01:08:00,
2013-04-16 20:12:00,77.5,58.5,29.89,NE,56,0.0,2.2,52,0.00,,,0.00,VWS V13.01,2013-04-17 01:12:00,
2013-04-16 20:17:00,77.2,58.7,29.89,NE,56,0.0,0.0,53,0.00,,,0.00,VWS V13.01,2013-04-17 01:17:00,
2013-04-16 20:22:00,76.6,59.3,29.89,NE,56,0.0,0.0,55,0.00,,,0.00,VWS V13.01,2013-04-17 01:22:00,
2013-04-16 20:27:00,75.4,60.0,29.89,NE,49,0.0,0.0,59,0.00,,,0.00,VWS V13.01,2013-04-17 01:27:00,
2013-04-16 20:32:00,74.5,59.7,29.89,NE,49,0.0,0.0,60,0.00,,,0.00,VWS V13.01,2013-04-17 01:32:00,
2013-04-16 20:37:00,74.1,59.3,29.89,NE,49,0.0,0.0,60,0.00,,,0.00,VWS V13.01,2013-04-17 01:37:00,
2013-04-16 20:42:00,73.9,59.6,29.89,NE,49,0.0,0.0,61,0.00,,,0.00,VWS V13.01,2013-04-17 01:42:00,
2013-04-16 20:47:00,73.4,60.0,29.89,NE,49,0.0,0.0,63,0.00,,,0.00,VWS V13.01,2013-04-17 01:47:00,
2013-04-16 20:52:00,72.7,59.8,29.89,NE,44,3.1,3.1,64,0.00,,,0.00,VWS V13.01,2013-04-17 01:52:00,
2013-04-16 20:57:00,71.9,59.5,29.89,NE,44,2.2,2.7,65,0.00,,,0.00,VWS V13.01,2013-04-17 01:57:00,
2013-04-16 21:02:00,71.6,60.1,29.89,NE,44,2.2,2.7,67,0.00,,,0.00,VWS V13.01,2013-04-17 02:02:00,
2013-04-16 21:07:00,71.0,60.0,29.89,NE,44,2.2,2.7,68,0.00,,,0.00,VWS V13.01,2013-04-17 02:07:00,
2013-04-16 21:12:00,70.5,59.8,29.89,NE,44,0.0,0.0,69,0.00,,,0.00,VWS V13.01,2013-04-17 02:12:00,
2013-04-16 21:17:00,70.3,59.3,29.92,NE,44,0.0,0.0,68,0.00,,,0.00,VWS V13.01,2013-04-17 02:17:00,
2013-04-16 21:22:00,70.3,60.1,29.92,NE,44,2.2,2.2,70,0.00,,,0.00,VWS V13.01,2013-04-17 02:22:00,
2013-04-16 21:27:00,70.0,59.7,29.92,NE,44,0.0,0.0,70,0.00,,,0.00,VWS V13.01,2013-04-17 02:27:00,
2013-04-16 21:32:00,69.6,59.8,29.92,NE,44,0.0,0.0,71,0.00,,,0.00,VWS V13.01,2013-04-17 02:32:00,
2013-04-16 21:37:00,69.4,60.4,29.92,NE,44,0.0,0.0,73,0.00,,,0.00,VWS V13.01,2013-04-17 02:37:00,
2013-04-16 21:42:00,69.1,60.4,29.92,NE,44,0.0,0.0,74,0.00,,,0.00,VWS V13.01,2013-04-17 02:42:00,
2013-04-16 21:47:00,68.9,60.3,29.92,NE,44,0.0,0.0,74,0.00,,,0.00,VWS V13.01,2013-04-17 02:47:00,
2013-04-16 21:52:00,68.7,60.1,29.92,NE,44,0.0,0.0,74,0.00,,,0.00,VWS V13.01,2013-04-17 02:52:00,
2013-04-16 21:57:00,68.5,60.7,29.92,NE,44,0.0,0.0,76,0.00,,,0.00,VWS V13.01,2013-04-17 02:57:00,
2013-04-16 22:02:00,68.3,60.5,29.92,NE,44,0.0,0.0,76,0.00,,,0.00,VWS V13.01,2013-04-17 03:02:00,
2013-04-16 22:07:00,68.0,60.9,29.92,NE,44,0.0,0.0,78,0.00,,,0.00,VWS V13.01,2013-04-17 03:07:00,
2013-04-16 22:12:00,67.8,60.7,29.92,NE,44,0.0,0.0,78,0.00,,,0.00,VWS V13.01,2013-04-17 03:12:00,
2013-04-16 22:17:00,67.6,60.9,29.92,WNW,293,0.0,0.0,79,0.00,,,0.00,VWS V13.01,2013-04-17 03:17:00,
2013-04-16 22:22:00,67.6,60.9,29.92,NW,313,0.0,0.0,79,0.00,,,0.00,VWS V13.01,2013-04-17 03:22:00,
2013-04-16 22:27:00,67.6,60.9,29.92,NW,325,0.0,0.0,79,0.00,,,0.00,VWS V13.01,2013-04-17 03:27:00,
2013-04-16 22:32:00,67.8,61.1,29.92,North,4,0.0,0.0,79,0.00,,,0.00,VWS V13.01,2013-04-17 03:32:00,
2013-04-16 22:37:00,67.4,61.1,29.92,NNE,19,0.0,0.0,80,0.00,,,0.00,VWS V13.01,2013-04-17 03:37:00,
2013-04-16 22:42:00,67.6,60.9,29.92,NE,42,0.0,0.0,79,0.00,,,0.00,VWS V13.01,2013-04-17 03:42:00,
2013-04-16 22:47:00,67.6,60.5,29.92,NE,42,0.0,0.0,78,0.00,,,0.00,VWS V13.01,2013-04-17 03:47:00,
2013-04-16 22:52:00,67.1,60.7,29.92,NNE,15,0.0,0.0,80,0.00,,,0.00,VWS V13.01,2013-04-17 03:52:00,
2013-04-16 22:57:00,66.7,60.7,29.92,NNE,21,0.0,0.0,81,0.00,,,0.00,VWS V13.01,2013-04-17 03:57:00,
2013-04-16 23:00:00,66.5,60.9,29.92,NNE,21,0.0,0.0,82,0.00,,,0.00,VWS V13.01,2013-04-17 04:00:00,
2013-04-16 23:05:00,66.2,61.2,29.92,NNE,21,0.0,0.0,84,0.00,,,0.00,VWS V13.01,2013-04-17 04:05:00,
2013-04-16 23:10:00,66.2,61.2,29.92,NNE,21,0.0,0.0,84,0.00,,,0.00,VWS V13.01,2013-04-17 04:10:00,
2013-04-16 23:15:00,66.2,61.5,29.92,NE,37,0.0,0.0,85,0.00,,,0.00,VWS V13.01,2013-04-17 04:15:00,
2013-04-16 23:20:00,66.7,62.4,29.92,East,100,4.9,4.9,86,0.00,,,0.00,VWS V13.01,2013-04-17 04:20:00,
2013-04-16 23:25:00,68.2,62.8,29.92,SE,128,3.1,5.4,83,0.00,,,0.00,VWS V13.01,2013-04-17 04:25:00,
2013-04-16 23:30:00,70.0,62.4,29.92,East,87,2.7,3.1,77,0.00,,,0.00,VWS V13.01,2013-04-17 04:30:00,
2013-04-16 23:35:00,71.2,61.7,29.92,ENE,76,0.0,0.0,72,0.00,,,0.00,VWS V13.01,2013-04-17 04:35:00,
2013-04-16 23:40:00,71.9,61.2,29.92,ENE,65,2.7,3.1,69,0.00,,,0.00,VWS V13.01,2013-04-17 04:40:00,
2013-04-16 23:45:00,72.1,60.6,29.92,NE,51,0.0,0.0,67,0.00,,,0.00,VWS V13.01,2013-04-17 04:45:00,
2013-04-16 23:50:00,71.8,60.6,29.92,North,7,2.7,2.7,68,0.00,,,0.00,VWS V13.01,2013-04-17 04:50:00,
2013-04-16 23:55:00,71.0,60.4,29.92,NNE,32,2.2,3.6,69,0.00,,,0.00,VWS V13.01,2013-04-17 04:55:00,